Flag for Germany Weather past 2 weeks in Speyer, Rhineland-Palatinate, Germany

Now
91 °F

Passing clouds.


Feels Like: 88 °F
Forecast: 58 / 74 °F
Wind: 9 mph from Southwest

Location: Baden Wurttemberg - Neuostheim

Current Time: Aug 31, 2015 at 3:33:43 PM

Latest Report: Aug 31, 2015 at 2:50 PM


Visibility: N/A

Pressure: 29.89 "Hg

Humidity: 24%

Dew point: 50 °F

Location of SpeyerLocation

Historic Weather in Speyer — Graph

°F

Speyer temperature yesterday

Maximum temperature yesterday: 93 °F (at 4:50 PM)
Minimum temperature yesterday: 68 °F (at 7:20 AM)
Average temperature yesterday: 85 °F

Past Weeks' High & Low Weather Summary

 TemperatureHumidityPressure
High93 °F (Aug 30, 4:50 PM)100% (Aug 17, 9:20 PM)30.27 "Hg (Aug 17, 9:20 PM)
Low54 °F (Aug 19, 5:20 AM)23% (Aug 22, 2:50 PM)29.68 "Hg (Aug 23, 4:50 PM)
Average70 °F61%30.01 "Hg
* Reported Aug 16 2:20 PM — Aug 31 2:20 PM, Speyer, Weather by CustomWeather, © 2015

Note: Actual official high and low records may vary slightly from our data, if they occured in-between our weather recording intervals... More about our weather records

Advertising

Speyer weather history for previous 24 hours

 ConditionsComfort  
Time TempWeatherWind HumidityBarometerVisibility
2:20 PM
Mon, Aug 31
91 °FPassing clouds.8 mph26%29.89 "HgN/A
1:50 PM90 °FPassing clouds.8 mph26%29.89 "HgN/A
1:20 PM90 °FPassing clouds.8 mph26%29.92 "HgN/A
12:50 PM88 °FPleasantly warm.10 mph27%29.92 "HgN/A
12:20 PM88 °FPleasantly warm.9 mph29%29.92 "HgN/A
11:50 AM86 °FPassing clouds.7 mph40%29.95 "HgN/A
11:20 AM84 °FPassing clouds.8 mph40%29.95 "HgN/A
10:50 AM82 °FPassing clouds.7 mph42%29.95 "HgN/A
10:20 AM79 °FPassing clouds.7 mph48%29.95 "HgN/A
9:50 AM77 °FPassing clouds.7 mph57%29.95 "HgN/A
9:20 AM75 °FSunny.6 mph61%29.98 "Hg10 mi
8:50 AM73 °FPassing clouds.5 mph69%29.95 "HgN/A
8:20 AM72 °FPassing clouds.6 mph73%29.95 "HgN/A
7:50 AM72 °FPassing clouds.5 mph78%29.98 "HgN/A
7:20 AM70 °FClear.3 mph78%29.98 "Hg10 mi
6:50 AM70 °FClear.5 mph78%29.98 "Hg10 mi
6:20 AM70 °FClear.3 mph83%29.98 "Hg10 mi
7:20 PM
Sun, Aug 30
91 °FSunny.2 mph41%29.98 "Hg10 mi
6:50 PM93 °FSunny.2 mph34%29.98 "Hg10 mi
6:20 PM93 °FExtremely hot.2 mph34%29.98 "HgN/A
5:50 PM93 °FSunny.2 mph34%29.98 "Hg10 mi
5:20 PM93 °FSunny.3 mph32%30.01 "Hg10 mi
4:50 PM93 °FSunny.3 mph32%30.01 "Hg10 mi
4:20 PM91 °FPassing clouds.6 mph34%30.01 "HgN/A
3:50 PM91 °FPassing clouds.6 mph34%30.01 "HgN/A
3:20 PM91 °FPassing clouds.8 mph34%30.04 "HgN/A
Weather by CustomWeather, © 2015

See weather overviewHow to use our weather pages